Simultaneous Nadir Overpasses (SNOs) Predictions

Prediction of SNOs between METOP-C and LANDSAT-8 Satellite Orbit:

Table of predicted SNOs for the next 14.0 days since TLE Epoch: 2/19/2022
Index Date (METOP-C) Time (METOP-C) Lat,Lon (METOP-C) SZA (METOP-C ) Date (LANDSAT-8) Time (LANDSAT-8) Lat,Lon (LANDSAT-8) SZA (LANDSAT-8 ) Distance(km) Time Diff (sec)
1 02/21/2022 11:00:33 81.07, 53.41 93.10 02/21/2022 11:01:36 81.07, 53.44 93.13 0.43 63
2 02/21/2022 11:51:12 -81.11,-138.14 86.78 02/21/2022 11:51:01 -81.11,-138.28 86.80 2.56 11
3 02/24/2022 06:34:54 81.08, 120.09 92.12 02/24/2022 06:35:49 81.08, 119.99 92.12 1.74 55
4 02/24/2022 07:25:35 -81.10, -72.18 87.85 02/24/2022 07:25:15 -81.10, -72.06 87.85 1.95 20
5 02/27/2022 02:09:16 81.08,-173.64 91.06 02/27/2022 02:10:02 81.08,-173.52 91.10 2.09 46
6 02/27/2022 02:59:56 -81.11, -5.51 88.86 02/27/2022 02:59:28 -81.10, -5.55 88.87 0.81 28
7 03/01/2022 21:43:36 81.08,-107.02 90.04 03/01/2022 21:44:14 81.08,-107.10 90.04 1.47 38
8 03/01/2022 22:34:17 -81.10, 60.75 89.93 03/01/2022 22:33:40 -81.10, 60.90 89.92 2.53 37
9 03/04/2022 17:17:58 81.08, -40.80 88.95 03/04/2022 17:18:27 81.07, -40.74 88.97 1.10 29



Historial Predications of SNOs between METOP-C and LANDSAT-8
